Year,Month,Day,Hour,Minute,Value (Times are PST for windspeed in km/hr)
2010,05,03,00,00,8.00
2010,05,03,00,01,9.70
2010,05,03,00,02,5.00
2010,05,03,00,03,10.80
2010,05,03,00,04,3.30
2010,05,03,00,05,3.40
2010,05,03,00,06,5.80
2010,05,03,00,07,3.30
2010,05,03,00,08,4.80
2010,05,03,00,09,5.00
2010,05,03,00,10,6.30
2010,05,03,00,11,3.00
2010,05,03,00,12,1.30
2010,05,03,00,13,1.50
2010,05,03,00,14,0.00
2010,05,03,00,15,1.90
2010,05,03,00,16,6.80
2010,05,03,00,17,5.10
2010,05,03,00,18,2.70
2010,05,03,00,19,3.80
2010,05,03,00,20,8.20
2010,05,03,00,21,5.80
2010,05,03,00,22,3.90
2010,05,03,00,23,3.60
2010,05,03,00,24,6.10
2010,05,03,00,25,3.50
2010,05,03,00,26,1.80
2010,05,03,00,27,1.90
2010,05,03,00,28,4.70
2010,05,03,00,29,4.00
2010,05,03,00,30,3.10
2010,05,03,00,31,1.80
2010,05,03,00,32,0.30
2010,05,03,00,33,3.20
2010,05,03,00,34,7.40
2010,05,03,00,35,7.80
2010,05,03,00,36,5.90
2010,05,03,00,37,4.20
2010,05,03,00,38,1.80
2010,05,03,00,39,1.60
2010,05,03,00,40,6.90
2010,05,03,00,41,7.10
2010,05,03,00,42,5.50
2010,05,03,00,43,1.40
2010,05,03,00,44,0.20
2010,05,03,00,45,2.80
2010,05,03,00,46,3.70
2010,05,03,00,47,3.70
2010,05,03,00,48,2.90
2010,05,03,00,49,2.10
2010,05,03,00,50,3.80
2010,05,03,00,51,6.50
2010,05,03,00,52,8.80
2010,05,03,00,53,6.80
2010,05,03,00,54,2.90
2010,05,03,00,55,0.10
2010,05,03,00,56,0.10
2010,05,03,00,57,0.00
2010,05,03,00,58,2.30
2010,05,03,00,59,1.30
2010,05,03,01,00,0.50
2010,05,03,01,01,0.10
2010,05,03,01,02,1.30
2010,05,03,01,03,0.00
2010,05,03,01,04,0.20
2010,05,03,01,05,3.10
2010,05,03,01,06,1.20
2010,05,03,01,07,2.30
2010,05,03,01,08,3.90
2010,05,03,01,09,7.50
2010,05,03,01,10,9.70
2010,05,03,01,11,8.30
2010,05,03,01,12,2.50
2010,05,03,01,13,2.60
2010,05,03,01,14,3.90
2010,05,03,01,15,5.30
2010,05,03,01,16,11.00
2010,05,03,01,17,7.50
2010,05,03,01,18,5.10
2010,05,03,01,19,3.10
2010,05,03,01,20,0.50
2010,05,03,01,21,0.90
2010,05,03,01,22,0.10
2010,05,03,01,23,3.00
2010,05,03,01,24,4.40
2010,05,03,01,25,1.60
2010,05,03,01,26,6.80
2010,05,03,01,27,2.10
2010,05,03,01,28,1.00
2010,05,03,01,29,0.80
2010,05,03,01,30,4.00
2010,05,03,01,31,6.70
2010,05,03,01,32,7.90
2010,05,03,01,33,5.00
2010,05,03,01,34,1.10
2010,05,03,01,35,0.00
2010,05,03,01,36,2.20
2010,05,03,01,37,2.30
2010,05,03,01,38,2.60
2010,05,03,01,39,1.40
2010,05,03,01,40,1.00
2010,05,03,01,41,4.80
2010,05,03,01,42,5.30
2010,05,03,01,43,2.30
2010,05,03,01,44,4.70
2010,05,03,01,45,6.40
2010,05,03,01,46,8.50
2010,05,03,01,47,6.40
2010,05,03,01,48,3.80
2010,05,03,01,49,1.60
2010,05,03,01,50,1.90
2010,05,03,01,51,0.10
2010,05,03,01,52,2.30
2010,05,03,01,53,7.30
2010,05,03,01,54,5.40
2010,05,03,01,55,2.90
2010,05,03,01,56,0.80
2010,05,03,01,57,3.60
2010,05,03,01,58,0.80
2010,05,03,01,59,6.70
2010,05,03,02,00,8.60
2010,05,03,02,01,5.10
2010,05,03,02,02,3.60
2010,05,03,02,03,1.00
2010,05,03,02,04,2.40
2010,05,03,02,05,0.40
2010,05,03,02,06,1.40
2010,05,03,02,07,1.80
2010,05,03,02,08,1.80
2010,05,03,02,09,1.90
2010,05,03,02,10,2.90
2010,05,03,02,11,2.00
2010,05,03,02,12,0.20
2010,05,03,02,13,1.50
2010,05,03,02,14,3.60
2010,05,03,02,15,5.60
2010,05,03,02,16,2.10
2010,05,03,02,17,2.50
2010,05,03,02,18,4.50
2010,05,03,02,19,1.40
2010,05,03,02,20,1.80
2010,05,03,02,21,3.10
2010,05,03,02,22,3.90
2010,05,03,02,23,1.70
2010,05,03,02,24,1.20
2010,05,03,02,25,4.80
2010,05,03,02,26,3.20
2010,05,03,02,27,1.60
2010,05,03,02,28,5.00
2010,05,03,02,29,4.50
2010,05,03,02,30,4.80
2010,05,03,02,31,3.10
2010,05,03,02,32,1.10
2010,05,03,02,33,4.00
2010,05,03,02,34,5.50
2010,05,03,02,35,5.50
2010,05,03,02,36,17.10
2010,05,03,02,37,7.90
2010,05,03,02,38,2.80
2010,05,03,02,39,4.30
2010,05,03,02,40,5.10
2010,05,03,02,41,4.90
2010,05,03,02,42,8.60
2010,05,03,02,43,9.40
2010,05,03,02,44,5.10
2010,05,03,02,45,8.40
2010,05,03,02,46,3.60
2010,05,03,02,47,5.00
2010,05,03,02,48,3.80
2010,05,03,02,49,5.80
2010,05,03,02,50,10.10
2010,05,03,02,51,8.00
2010,05,03,02,52,5.30
2010,05,03,02,53,7.40
2010,05,03,02,54,8.10
2010,05,03,02,55,7.40
2010,05,03,02,56,4.70
2010,05,03,02,57,7.90
2010,05,03,02,58,17.30
2010,05,03,02,59,5.20
2010,05,03,03,00,5.30
2010,05,03,03,01,8.50
2010,05,03,03,02,5.50
2010,05,03,03,03,10.10
2010,05,03,03,04,4.70
2010,05,03,03,05,9.70
2010,05,03,03,06,7.20
2010,05,03,03,07,7.90
2010,05,03,03,08,3.60
2010,05,03,03,09,6.40
2010,05,03,03,10,6.20
2010,05,03,03,11,15.70
2010,05,03,03,12,11.60
2010,05,03,03,13,11.30
2010,05,03,03,14,14.20
2010,05,03,03,15,9.40
2010,05,03,03,16,7.60
2010,05,03,03,17,7.10
2010,05,03,03,18,6.80
2010,05,03,03,19,6.80
2010,05,03,03,20,6.20
2010,05,03,03,21,6.10
2010,05,03,03,22,17.50
2010,05,03,03,23,15.30
2010,05,03,03,24,12.30
2010,05,03,03,25,13.40
2010,05,03,03,26,10.90
2010,05,03,03,27,9.40
2010,05,03,03,28,11.60
2010,05,03,03,29,7.00
2010,05,03,03,30,8.10
2010,05,03,03,31,13.30
2010,05,03,03,32,8.10
2010,05,03,03,33,10.20
2010,05,03,03,34,6.10
2010,05,03,03,35,5.40
2010,05,03,03,36,9.30
2010,05,03,03,37,8.80
2010,05,03,03,38,21.20
2010,05,03,03,39,5.00
2010,05,03,03,40,15.60
2010,05,03,03,41,16.00
2010,05,03,03,42,10.00
2010,05,03,03,43,16.00
2010,05,03,03,44,7.20
2010,05,03,03,45,11.30
2010,05,03,03,46,17.90
2010,05,03,03,47,8.40
2010,05,03,03,48,10.50
2010,05,03,03,49,6.10
2010,05,03,03,50,6.70
2010,05,03,03,51,2.70
2010,05,03,03,52,4.10
2010,05,03,03,53,7.50
2010,05,03,03,54,11.70
2010,05,03,03,55,13.60
2010,05,03,03,56,10.90
2010,05,03,03,57,9.70
2010,05,03,03,58,13.00
2010,05,03,03,59,13.00
2010,05,03,04,00,11.20
2010,05,03,04,01,6.60
2010,05,03,04,02,8.20
2010,05,03,04,03,3.10
2010,05,03,04,04,9.70
2010,05,03,04,05,9.70
2010,05,03,04,06,15.90
2010,05,03,04,07,15.20
2010,05,03,04,08,20.90
2010,05,03,04,09,21.90
2010,05,03,04,10,19.20
2010,05,03,04,11,15.90
2010,05,03,04,12,15.00
2010,05,03,04,13,11.60
2010,05,03,04,14,8.40
2010,05,03,04,15,11.70
2010,05,03,04,16,12.50
2010,05,03,04,17,15.40
2010,05,03,04,18,19.30
2010,05,03,04,19,11.00
2010,05,03,04,20,8.60
2010,05,03,04,21,10.80
2010,05,03,04,22,15.30
2010,05,03,04,23,26.30
2010,05,03,04,24,23.70
2010,05,03,04,25,23.60
2010,05,03,04,26,22.50
2010,05,03,04,27,17.70
2010,05,03,04,28,6.90
2010,05,03,04,29,13.50
2010,05,03,04,30,20.60
2010,05,03,04,31,9.20
2010,05,03,04,32,18.50
2010,05,03,04,33,13.10
2010,05,03,04,34,11.30
2010,05,03,04,35,18.30
2010,05,03,04,36,19.10
2010,05,03,04,37,14.80
2010,05,03,04,38,13.00
2010,05,03,04,39,15.40
2010,05,03,04,40,13.20
2010,05,03,04,41,7.90
2010,05,03,04,42,14.90
2010,05,03,04,43,11.60
2010,05,03,04,44,12.70
2010,05,03,04,45,10.50
2010,05,03,04,46,6.30
2010,05,03,04,47,4.80
2010,05,03,04,48,2.00
2010,05,03,04,49,4.00
2010,05,03,04,50,5.30
2010,05,03,04,51,6.70
2010,05,03,04,52,4.60
2010,05,03,04,53,5.80
2010,05,03,04,54,2.20
2010,05,03,04,55,5.90
2010,05,03,04,56,10.30
2010,05,03,04,57,9.10
2010,05,03,04,58,6.40
2010,05,03,04,59,4.00
2010,05,03,05,00,6.70
2010,05,03,05,01,3.60
2010,05,03,05,02,8.40
2010,05,03,05,03,7.30
2010,05,03,05,04,5.30
2010,05,03,05,05,8.10
2010,05,03,05,06,4.90
2010,05,03,05,07,7.60
2010,05,03,05,08,16.70
2010,05,03,05,09,6.90
2010,05,03,05,10,6.90
2010,05,03,05,11,7.50
2010,05,03,05,12,5.20
2010,05,03,05,13,7.90
2010,05,03,05,14,4.70
2010,05,03,05,15,5.00
2010,05,03,05,16,6.10
2010,05,03,05,17,3.20
2010,05,03,05,18,6.20
2010,05,03,05,19,3.10
2010,05,03,05,20,2.10
2010,05,03,05,21,6.40
2010,05,03,05,22,5.60
2010,05,03,05,23,11.20
2010,05,03,05,24,7.60
2010,05,03,05,25,6.00
2010,05,03,05,26,9.00
2010,05,03,05,27,5.60
2010,05,03,05,28,4.70
2010,05,03,05,29,5.40
2010,05,03,05,30,10.00
2010,05,03,05,31,12.10
2010,05,03,05,32,10.30
2010,05,03,05,33,4.70
2010,05,03,05,34,5.10
2010,05,03,05,35,10.70
2010,05,03,05,36,2.70
2010,05,03,05,37,2.00
2010,05,03,05,38,12.50
2010,05,03,05,39,11.50
2010,05,03,05,40,7.90
2010,05,03,05,41,13.70
2010,05,03,05,42,13.60
2010,05,03,05,43,12.10
2010,05,03,05,44,15.30
2010,05,03,05,45,4.90
2010,05,03,05,46,5.30
2010,05,03,05,47,2.70
2010,05,03,05,48,2.80
2010,05,03,05,49,7.60
2010,05,03,05,50,14.40
2010,05,03,05,51,11.30
2010,05,03,05,52,14.60
2010,05,03,05,53,11.40
2010,05,03,05,54,5.80
2010,05,03,05,55,8.90
2010,05,03,05,56,5.30
2010,05,03,05,57,13.60
2010,05,03,05,58,12.70
2010,05,03,05,59,9.40
2010,05,03,06,00,9.10
2010,05,03,06,01,17.40
2010,05,03,06,02,10.10
2010,05,03,06,03,11.80
2010,05,03,06,04,13.20
2010,05,03,06,05,9.70
2010,05,03,06,06,10.30
2010,05,03,06,07,4.40
2010,05,03,06,08,6.80
2010,05,03,06,09,7.00
2010,05,03,06,10,8.90
2010,05,03,06,11,13.50
2010,05,03,06,12,19.10
2010,05,03,06,13,4.20
2010,05,03,06,14,9.20
2010,05,03,06,15,15.70
2010,05,03,06,16,16.30
2010,05,03,06,17,8.00
2010,05,03,06,18,13.30
2010,05,03,06,19,9.30
2010,05,03,06,20,5.70
2010,05,03,06,21,10.60
2010,05,03,06,22,9.20
2010,05,03,06,23,8.50
2010,05,03,06,24,7.60
2010,05,03,06,25,11.40
2010,05,03,06,26,14.60
2010,05,03,06,27,14.50
2010,05,03,06,28,14.40
2010,05,03,06,29,16.60
2010,05,03,06,30,20.80
2010,05,03,06,31,20.20
2010,05,03,06,32,19.90
2010,05,03,06,33,16.60
2010,05,03,06,34,13.70
2010,05,03,06,35,17.60
2010,05,03,06,36,12.30
2010,05,03,06,37,10.90
2010,05,03,06,38,10.50
2010,05,03,06,39,13.30
2010,05,03,06,40,16.30
2010,05,03,06,41,13.90
2010,05,03,06,42,13.00
2010,05,03,06,43,11.00
2010,05,03,06,44,12.30
2010,05,03,06,45,15.80
2010,05,03,06,46,19.40
2010,05,03,06,47,12.60
2010,05,03,06,48,11.30
2010,05,03,06,49,11.20
2010,05,03,06,50,15.20
2010,05,03,06,51,16.00
2010,05,03,06,52,17.00
2010,05,03,06,53,18.80
2010,05,03,06,54,17.40
2010,05,03,06,55,23.50
2010,05,03,06,56,14.30
2010,05,03,06,57,14.60
2010,05,03,06,58,17.30
2010,05,03,06,59,14.10
2010,05,03,07,00,14.50
2010,05,03,07,01,12.90
2010,05,03,07,02,21.80
2010,05,03,07,03,21.80
2010,05,03,07,04,14.60
2010,05,03,07,05,20.40
2010,05,03,07,06,12.50
2010,05,03,07,07,19.60
2010,05,03,07,08,18.40
2010,05,03,07,09,11.30
2010,05,03,07,10,14.10
2010,05,03,07,11,9.10
2010,05,03,07,12,17.80
2010,05,03,07,13,16.90
2010,05,03,07,14,10.70
2010,05,03,07,15,20.50
2010,05,03,07,16,14.30
2010,05,03,07,17,14.10
2010,05,03,07,18,16.60
2010,05,03,07,19,16.70
2010,05,03,07,20,19.30
2010,05,03,07,21,15.20
2010,05,03,07,22,13.20
2010,05,03,07,23,14.30
2010,05,03,07,24,12.00
2010,05,03,07,25,19.00
2010,05,03,07,26,16.50
2010,05,03,07,27,20.60
2010,05,03,07,28,13.40
2010,05,03,07,29,13.70
2010,05,03,07,30,12.40
2010,05,03,07,31,13.70
2010,05,03,07,32,13.60
2010,05,03,07,33,12.90
2010,05,03,07,34,10.50
2010,05,03,07,35,13.50
2010,05,03,07,36,14.10
2010,05,03,07,37,14.20
2010,05,03,07,38,16.70
2010,05,03,07,39,10.50
2010,05,03,07,40,10.60
2010,05,03,07,41,10.70
2010,05,03,07,42,14.80
2010,05,03,07,43,8.60
2010,05,03,07,44,3.40
2010,05,03,07,45,5.60
2010,05,03,07,46,6.40
2010,05,03,07,47,10.70
2010,05,03,07,48,19.20
2010,05,03,07,49,13.00
2010,05,03,07,50,13.90
2010,05,03,07,51,19.10
2010,05,03,07,52,15.00
2010,05,03,07,53,14.80
2010,05,03,07,54,7.30
2010,05,03,07,55,6.90
2010,05,03,07,56,13.00
2010,05,03,07,57,22.60
2010,05,03,07,58,12.50
2010,05,03,07,59,10.80
2010,05,03,08,00,4.30
2010,05,03,08,01,8.90
2010,05,03,08,02,15.80
2010,05,03,08,03,17.50
2010,05,03,08,04,10.30
2010,05,03,08,05,15.90
2010,05,03,08,06,12.50
2010,05,03,08,07,13.90
2010,05,03,08,08,13.00
2010,05,03,08,09,18.80
2010,05,03,08,10,17.80
2010,05,03,08,11,14.30
2010,05,03,08,12,14.50
2010,05,03,08,13,14.80
2010,05,03,08,14,15.50
2010,05,03,08,15,10.90
2010,05,03,08,16,15.10
2010,05,03,08,17,11.50
2010,05,03,08,18,8.00
2010,05,03,08,19,12.30
2010,05,03,08,20,22.10
2010,05,03,08,21,25.50
2010,05,03,08,22,14.30
2010,05,03,08,23,3.40
2010,05,03,08,24,13.90
2010,05,03,08,25,5.80
2010,05,03,08,26,13.40
2010,05,03,08,27,18.80
2010,05,03,08,28,13.10
2010,05,03,08,29,15.00
2010,05,03,08,30,23.50
2010,05,03,08,31,16.40
2010,05,03,08,32,14.60
2010,05,03,08,33,12.10
2010,05,03,08,34,14.50
2010,05,03,08,35,18.10
2010,05,03,08,36,13.90
2010,05,03,08,37,14.20
2010,05,03,08,38,5.90
2010,05,03,08,39,18.70
2010,05,03,08,40,12.80
2010,05,03,08,41,14.80
2010,05,03,08,42,15.80
2010,05,03,08,43,16.70
2010,05,03,08,44,15.20
2010,05,03,08,45,18.10
2010,05,03,08,46,20.20
2010,05,03,08,47,15.40
2010,05,03,08,48,19.40
2010,05,03,08,49,15.90
2010,05,03,08,50,11.30
2010,05,03,08,51,11.90
2010,05,03,08,52,25.50
2010,05,03,08,53,13.20
2010,05,03,08,54,10.00
2010,05,03,08,55,21.60
2010,05,03,08,56,14.80
2010,05,03,08,57,9.90
2010,05,03,08,58,19.70
2010,05,03,08,59,9.80
2010,05,03,09,00,23.60
2010,05,03,09,01,20.00
2010,05,03,09,02,25.70
2010,05,03,09,03,20.90
2010,05,03,09,04,20.00
2010,05,03,09,05,16.40
2010,05,03,09,06,16.50
2010,05,03,09,07,17.20
2010,05,03,09,08,16.80
2010,05,03,09,09,14.10
2010,05,03,09,10,9.40
2010,05,03,09,11,9.00
2010,05,03,09,12,14.90
2010,05,03,09,13,7.00
2010,05,03,09,14,14.30
2010,05,03,09,15,14.50
2010,05,03,09,16,15.90
2010,05,03,09,17,23.50
2010,05,03,09,18,30.60
2010,05,03,09,19,24.70
2010,05,03,09,20,21.00
2010,05,03,09,21,22.40
2010,05,03,09,22,20.80
2010,05,03,09,23,16.20
2010,05,03,09,24,13.40
2010,05,03,09,25,14.10
2010,05,03,09,26,11.30
2010,05,03,09,27,19.80
2010,05,03,09,28,21.30
2010,05,03,09,29,26.80
2010,05,03,09,30,21.90
2010,05,03,09,31,21.00
2010,05,03,09,32,17.30
2010,05,03,09,33,19.70
2010,05,03,09,34,14.60
2010,05,03,09,35,15.70
2010,05,03,09,36,21.70
2010,05,03,09,37,16.80
2010,05,03,09,38,18.50
2010,05,03,09,39,27.80
2010,05,03,09,40,25.60
2010,05,03,09,41,33.00
2010,05,03,09,42,27.00
2010,05,03,09,43,25.30
2010,05,03,09,44,26.60
2010,05,03,09,45,21.20
2010,05,03,09,46,22.80
2010,05,03,09,47,27.40
2010,05,03,09,48,23.50
2010,05,03,09,49,18.30
2010,05,03,09,50,12.70
2010,05,03,09,51,14.00
2010,05,03,09,52,16.70
2010,05,03,09,53,15.80
2010,05,03,09,54,13.00
2010,05,03,09,55,16.90
2010,05,03,09,56,15.90
2010,05,03,09,57,16.90
2010,05,03,09,58,18.70
2010,05,03,09,59,16.50
2010,05,03,10,00,16.00
2010,05,03,10,01,23.20
2010,05,03,10,02,17.10
2010,05,03,10,03,19.80
2010,05,03,10,04,15.20
2010,05,03,10,05,22.90
2010,05,03,10,06,13.90
2010,05,03,10,07,16.60
2010,05,03,10,08,23.90
2010,05,03,10,09,24.10
2010,05,03,10,10,20.20
2010,05,03,10,11,18.50
2010,05,03,10,12,17.90
2010,05,03,10,13,16.20
2010,05,03,10,14,18.00
2010,05,03,10,15,13.10
2010,05,03,10,16,20.30
2010,05,03,10,17,21.10
2010,05,03,10,18,17.20
2010,05,03,10,19,10.60
2010,05,03,10,20,8.80
2010,05,03,10,21,11.80
2010,05,03,10,22,11.80
2010,05,03,10,23,8.60
2010,05,03,10,24,18.20
2010,05,03,10,25,11.80
2010,05,03,10,26,8.10
2010,05,03,10,27,10.20
2010,05,03,10,28,8.60
2010,05,03,10,29,10.30
2010,05,03,10,30,11.60
2010,05,03,10,31,12.30
2010,05,03,10,32,12.60
2010,05,03,10,33,7.70
2010,05,03,10,34,11.30
2010,05,03,10,35,10.80
2010,05,03,10,36,17.20
2010,05,03,10,37,16.90
2010,05,03,10,38,8.20
2010,05,03,10,39,16.30
2010,05,03,10,40,10.20
2010,05,03,10,41,23.30
2010,05,03,10,42,16.60
2010,05,03,10,43,10.90
2010,05,03,10,44,16.90
2010,05,03,10,45,19.20
2010,05,03,10,46,18.20
2010,05,03,10,47,17.70
2010,05,03,10,48,10.20
2010,05,03,10,49,15.50
2010,05,03,10,50,11.40
2010,05,03,10,51,13.00
2010,05,03,10,52,19.90
2010,05,03,10,53,22.90
2010,05,03,10,54,18.90
2010,05,03,10,55,19.40
2010,05,03,10,56,20.80
2010,05,03,10,57,19.20
2010,05,03,10,58,10.50
2010,05,03,10,59,18.50
2010,05,03,11,00,16.90
2010,05,03,11,01,18.50
2010,05,03,11,02,20.40
2010,05,03,11,03,16.90
2010,05,03,11,04,13.00
2010,05,03,11,05,20.60
2010,05,03,11,06,20.30
2010,05,03,11,07,16.40
2010,05,03,11,08,15.10
2010,05,03,11,09,22.40
2010,05,03,11,10,21.30
2010,05,03,11,11,23.00
2010,05,03,11,12,17.30
2010,05,03,11,13,7.40
2010,05,03,11,14,7.20
2010,05,03,11,15,15.00
2010,05,03,11,16,10.60
2010,05,03,11,17,8.20
2010,05,03,11,18,5.70
2010,05,03,11,19,8.60
2010,05,03,11,20,8.60
2010,05,03,11,21,9.80
2010,05,03,11,22,7.10
2010,05,03,11,23,7.20
2010,05,03,11,24,7.70
2010,05,03,11,25,5.60
2010,05,03,11,26,12.70
2010,05,03,11,27,9.10
2010,05,03,11,28,4.10
2010,05,03,11,29,1.00
2010,05,03,11,30,4.20
2010,05,03,11,31,8.40
2010,05,03,11,32,12.60
2010,05,03,11,33,8.00
2010,05,03,11,34,9.00
2010,05,03,11,35,11.00
2010,05,03,11,36,9.80
2010,05,03,11,37,3.10
2010,05,03,11,38,3.60
2010,05,03,11,39,4.90
2010,05,03,11,40,13.70
2010,05,03,11,41,8.90
2010,05,03,11,42,8.60
2010,05,03,11,43,10.90
2010,05,03,11,44,10.00
2010,05,03,11,45,9.70
2010,05,03,11,46,4.30
2010,05,03,11,47,9.20
2010,05,03,11,48,10.90
2010,05,03,11,49,12.20
2010,05,03,11,50,13.50
2010,05,03,11,51,9.00
2010,05,03,11,52,10.90
2010,05,03,11,53,12.00
2010,05,03,11,54,11.80
2010,05,03,11,55,7.50
2010,05,03,11,56,10.20
2010,05,03,11,57,11.20
2010,05,03,11,58,13.30
2010,05,03,11,59,10.80
2010,05,03,12,00,9.50
2010,05,03,12,01,9.50
2010,05,03,12,02,9.90
2010,05,03,12,03,7.30
2010,05,03,12,04,9.80
2010,05,03,12,05,7.90
2010,05,03,12,06,9.70
2010,05,03,12,07,6.90
2010,05,03,12,08,3.30
2010,05,03,12,09,12.80
2010,05,03,12,10,8.30
2010,05,03,12,11,6.90
2010,05,03,12,12,4.60
2010,05,03,12,13,9.90
2010,05,03,12,14,3.70
2010,05,03,12,15,9.90
2010,05,03,12,16,4.70
2010,05,03,12,17,9.70
2010,05,03,12,18,6.70
2010,05,03,12,19,7.70
2010,05,03,12,20,4.00
2010,05,03,12,21,8.00
2010,05,03,12,22,8.80
2010,05,03,12,23,11.40
2010,05,03,12,24,11.80
2010,05,03,12,25,7.80
2010,05,03,12,26,9.40
2010,05,03,12,27,10.50
2010,05,03,12,28,9.00
2010,05,03,12,29,10.90
2010,05,03,12,30,7.30
2010,05,03,12,31,15.80
2010,05,03,12,32,9.60
2010,05,03,12,33,7.40
2010,05,03,12,34,12.80
2010,05,03,12,35,8.10
2010,05,03,12,36,8.50
2010,05,03,12,37,13.80
2010,05,03,12,38,17.90
2010,05,03,12,39,7.50
2010,05,03,12,40,10.10
2010,05,03,12,41,11.40
2010,05,03,12,42,13.00
2010,05,03,12,43,11.80
2010,05,03,12,44,17.20
2010,05,03,12,45,5.50
2010,05,03,12,46,12.40
2010,05,03,12,47,8.40
2010,05,03,12,48,9.70
2010,05,03,12,49,7.80
2010,05,03,12,50,11.20
2010,05,03,12,51,8.20
2010,05,03,12,52,11.30
2010,05,03,12,53,9.40
2010,05,03,12,54,12.90
2010,05,03,12,55,18.20
2010,05,03,12,56,20.50
2010,05,03,12,57,8.70
2010,05,03,12,58,12.00
2010,05,03,12,59,7.60
2010,05,03,13,00,4.80
2010,05,03,13,01,10.60
2010,05,03,13,02,13.50
2010,05,03,13,03,12.80
2010,05,03,13,04,11.80
2010,05,03,13,05,6.50
2010,05,03,13,06,3.70
2010,05,03,13,07,6.30
2010,05,03,13,08,13.00
2010,05,03,13,09,14.10
2010,05,03,13,10,13.30
2010,05,03,13,11,15.70
2010,05,03,13,12,12.90
2010,05,03,13,13,15.20
2010,05,03,13,14,8.40
2010,05,03,13,15,10.90
2010,05,03,13,16,5.60
2010,05,03,13,17,11.60
2010,05,03,13,18,8.40
2010,05,03,13,19,8.90
2010,05,03,13,20,1.90
2010,05,03,13,21,3.40
2010,05,03,13,22,7.60
2010,05,03,13,23,14.70
2010,05,03,13,24,7.00
2010,05,03,13,25,6.40
2010,05,03,13,26,5.90
2010,05,03,13,27,13.20
2010,05,03,13,28,17.30
2010,05,03,13,29,13.50
2010,05,03,13,30,9.90
2010,05,03,13,31,8.80
2010,05,03,13,32,9.00
2010,05,03,13,33,15.40
2010,05,03,13,34,14.20
2010,05,03,13,35,12.20
2010,05,03,13,36,18.80
2010,05,03,13,37,4.60
2010,05,03,13,38,15.00
2010,05,03,13,39,10.10
2010,05,03,13,40,14.60
2010,05,03,13,41,5.60
2010,05,03,13,42,9.60
2010,05,03,13,43,11.90
2010,05,03,13,44,6.40
2010,05,03,13,45,8.80
2010,05,03,13,46,16.10
2010,05,03,13,47,9.60
2010,05,03,13,48,17.20
2010,05,03,13,49,11.90
2010,05,03,13,50,15.10
2010,05,03,13,51,17.50
2010,05,03,13,52,15.90
2010,05,03,13,53,6.40
2010,05,03,13,54,4.80
2010,05,03,13,55,8.40
2010,05,03,13,56,12.80
2010,05,03,13,57,8.20
2010,05,03,13,58,13.40
2010,05,03,13,59,5.10
2010,05,03,14,00,17.50
2010,05,03,14,01,18.40
2010,05,03,14,02,12.50
2010,05,03,14,03,11.30
2010,05,03,14,04,17.60
2010,05,03,14,05,13.50
2010,05,03,14,06,12.60
2010,05,03,14,07,15.10
2010,05,03,14,08,7.00
2010,05,03,14,09,14.40
2010,05,03,14,10,8.70
2010,05,03,14,11,19.50
2010,05,03,14,12,13.80
2010,05,03,14,13,9.10
2010,05,03,14,14,12.40
2010,05,03,14,15,12.00
2010,05,03,14,16,13.10
2010,05,03,14,17,11.90
2010,05,03,14,18,11.20
2010,05,03,14,19,12.60
2010,05,03,14,20,16.60
2010,05,03,14,21,13.00
2010,05,03,14,22,19.70
2010,05,03,14,23,15.50
2010,05,03,14,24,11.30
2010,05,03,14,25,12.00
2010,05,03,14,26,19.90
2010,05,03,14,27,10.30
2010,05,03,14,28,15.50
2010,05,03,14,29,10.60
2010,05,03,14,30,9.40
2010,05,03,14,31,9.40
2010,05,03,14,32,8.10
2010,05,03,14,33,10.80
2010,05,03,14,34,9.70
2010,05,03,14,35,6.80
2010,05,03,14,36,3.80
2010,05,03,14,37,7.50
2010,05,03,14,38,8.80
2010,05,03,14,39,13.00
2010,05,03,14,40,15.30
2010,05,03,14,41,6.90
2010,05,03,14,42,6.50
2010,05,03,14,43,9.20
2010,05,03,14,44,7.10
2010,05,03,14,45,6.00
2010,05,03,14,46,8.80
2010,05,03,14,47,16.90
2010,05,03,14,48,16.10
2010,05,03,14,49,9.50
2010,05,03,14,50,4.50
2010,05,03,14,51,4.60
2010,05,03,14,52,6.40
2010,05,03,14,53,10.70
2010,05,03,14,54,9.60
2010,05,03,14,55,8.10
2010,05,03,14,56,2.30
2010,05,03,14,57,4.10
2010,05,03,14,58,5.90
2010,05,03,14,59,6.90
2010,05,03,15,00,6.90
2010,05,03,15,01,9.90
2010,05,03,15,02,7.20
2010,05,03,15,03,7.70
2010,05,03,15,04,8.00
2010,05,03,15,05,10.30
2010,05,03,15,06,10.10
2010,05,03,15,07,13.10
2010,05,03,15,08,5.20
2010,05,03,15,09,6.20
2010,05,03,15,10,5.00
2010,05,03,15,11,7.50
2010,05,03,15,12,8.30
2010,05,03,15,13,11.30
2010,05,03,15,14,6.40
2010,05,03,15,15,6.50
2010,05,03,15,16,5.20
2010,05,03,15,17,9.30
2010,05,03,15,18,9.40
2010,05,03,15,19,15.10
2010,05,03,15,20,8.10
2010,05,03,15,21,9.80
2010,05,03,15,22,2.90
2010,05,03,15,23,6.30
2010,05,03,15,24,7.60
2010,05,03,15,25,4.50
2010,05,03,15,26,6.40
2010,05,03,15,27,5.90
2010,05,03,15,28,9.40
2010,05,03,15,29,13.80
2010,05,03,15,30,7.90
2010,05,03,15,31,13.90
2010,05,03,15,32,13.40
2010,05,03,15,33,14.90
2010,05,03,15,34,10.50
2010,05,03,15,35,5.90
2010,05,03,15,36,8.10
2010,05,03,15,37,7.40
2010,05,03,15,38,5.90
2010,05,03,15,39,10.90
2010,05,03,15,40,5.10
2010,05,03,15,41,5.10
2010,05,03,15,42,6.20
2010,05,03,15,43,7.80
2010,05,03,15,44,8.10
2010,05,03,15,45,12.00
2010,05,03,15,46,8.60
2010,05,03,15,47,6.10
2010,05,03,15,48,6.50
2010,05,03,15,49,4.70
2010,05,03,15,50,7.60
2010,05,03,15,51,2.30
2010,05,03,15,52,1.00
2010,05,03,15,53,4.10
2010,05,03,15,54,5.70
2010,05,03,15,55,4.50
2010,05,03,15,56,2.70
2010,05,03,15,57,3.50
2010,05,03,15,58,3.40
2010,05,03,15,59,5.80
2010,05,03,16,00,11.30
2010,05,03,16,01,12.70
2010,05,03,16,02,7.30
2010,05,03,16,03,4.70
2010,05,03,16,04,7.20
2010,05,03,16,05,6.10
2010,05,03,16,06,5.30
2010,05,03,16,07,4.50
2010,05,03,16,08,0.80
2010,05,03,16,09,0.00
2010,05,03,16,10,0.10
2010,05,03,16,11,0.40
2010,05,03,16,12,3.30
2010,05,03,16,13,1.90
2010,05,03,16,14,0.00
2010,05,03,16,15,0.10
2010,05,03,16,16,0.40
2010,05,03,16,17,0.00
2010,05,03,16,18,0.00
2010,05,03,16,19,0.90
2010,05,03,16,20,0.80
2010,05,03,16,21,4.20
2010,05,03,16,22,3.30
2010,05,03,16,23,1.80
2010,05,03,16,24,0.60
2010,05,03,16,25,1.80
2010,05,03,16,26,4.70
2010,05,03,16,27,5.20
2010,05,03,16,28,3.30
2010,05,03,16,29,5.30
2010,05,03,16,30,6.10
2010,05,03,16,31,6.60
2010,05,03,16,32,8.90
2010,05,03,16,33,7.20
2010,05,03,16,34,3.90
2010,05,03,16,35,0.60
2010,05,03,16,36,1.70
2010,05,03,16,37,2.20
2010,05,03,16,38,2.20
2010,05,03,16,39,5.80
2010,05,03,16,40,4.10
2010,05,03,16,41,1.90
2010,05,03,16,42,3.50
2010,05,03,16,43,2.10
2010,05,03,16,44,3.80
2010,05,03,16,45,1.90
2010,05,03,16,46,4.30
2010,05,03,16,47,6.30
2010,05,03,16,48,11.60
2010,05,03,16,49,4.30
2010,05,03,16,50,4.80
2010,05,03,16,51,5.50
2010,05,03,16,52,9.70
2010,05,03,16,53,4.70
2010,05,03,16,54,4.30
2010,05,03,16,55,5.50
2010,05,03,16,56,6.10
2010,05,03,16,57,7.20
2010,05,03,16,58,13.80
2010,05,03,16,59,14.00
2010,05,03,17,00,13.70
2010,05,03,17,01,14.60
2010,05,03,17,02,10.00
2010,05,03,17,03,14.60
2010,05,03,17,04,17.00
2010,05,03,17,05,14.40
2010,05,03,17,06,17.60
2010,05,03,17,07,9.00
2010,05,03,17,08,10.10
2010,05,03,17,09,7.60
2010,05,03,17,10,4.00
2010,05,03,17,11,5.50
2010,05,03,17,12,4.20
2010,05,03,17,13,7.40
2010,05,03,17,14,4.60
2010,05,03,17,15,3.50
2010,05,03,17,16,4.90
2010,05,03,17,17,1.90
2010,05,03,17,18,3.40
2010,05,03,17,19,5.40
2010,05,03,17,20,3.60
2010,05,03,17,21,4.90
2010,05,03,17,22,3.50
2010,05,03,17,23,1.60
2010,05,03,17,24,1.00
2010,05,03,17,25,1.00
2010,05,03,17,26,0.80
2010,05,03,17,27,2.10
2010,05,03,17,28,1.70
2010,05,03,17,29,0.70
2010,05,03,17,30,0.00
2010,05,03,17,31,0.10
2010,05,03,17,32,0.00
2010,05,03,17,33,0.00
2010,05,03,17,34,0.00
2010,05,03,17,35,0.00
2010,05,03,17,36,0.00
2010,05,03,17,37,0.00
2010,05,03,17,38,0.00
2010,05,03,17,39,0.00
2010,05,03,17,40,0.00
2010,05,03,17,41,0.00
2010,05,03,17,42,0.00
2010,05,03,17,43,0.00
2010,05,03,17,44,0.00